Weather History for KCLI - April, 2014

Change the Weather History Date:

Saturday, April 12, 2014

  Actual Average Record
Temperature  
Mean Temperature 40 °F -  
Max Temperature 44 °F 52 °F 84 °F (1977)
Min Temperature 35 °F 30 °F 16 °F (1957)
Degree Days  
Heating Degree Days 26    
Moisture  
Dew Point 37 °F    
Average Humidity 89    
Maximum Humidity 100    
Minimum Humidity 70    
Precipitation  
Precipitation 0.31 in - - ()
Sea Level Pressure  
Sea Level Pressure 29.89 in    
Wind  
Wind Speed 5 mph (ENE)    
Max Wind Speed 14 mph    
Max Gust Speed 23 mph    
Visibility 8 miles    
Events Rain    
Averages and records for this station are not official NWS values.
T = Trace of Precipitation, MM = Missing Value Source: NWS Daily Summary

Daily Weather History Graph

Daily Weather History Graph

Search for Another Location

Airport or City:

Trip Planner

Search our weather history database for the weather conditions in past years. The results will help you decide how hot, cold, wet, or windy it might be!

Date:

Astronomy

Apr. 12, 2014 Rise Set
Actual Time 6:16 AM CDT 7:36 PM CDT
Civil Twilight 5:45 AM CDT 8:06 PM CDT
Nautical Twilight 5:09 AM CDT 8:42 PM CDT
Astronomical Twilight 4:30 AM CDT 9:21 PM CDT
Moon 5:09 PM CDT (4/12) 4:49 AM CDT (4/12)
Length of Visible Light 14h 20m
Length of Day
13h 20m
Waxing Gibbous, 93% of the Moon is Illuminated
Apr 12
Waxing Gibbous
Apr 15
Full
Apr 22
Last Quarter
Apr 29
New
May 6
First Quarter

Hourly Weather History & Observations

Time (CDT) Temp. Windchill Dew Point Humidity Pressure Visibility Wind Dir Wind Speed Gust Speed Precip Events Conditions
12:15 AM 41.0 °F - 35.6 °F 81% 30.01 in 10.0 mi Calm Calm - N/A   Clear
12:35 AM 39.2 °F - 35.6 °F 87% 30.01 in 10.0 mi Calm Calm - N/A   Clear
12:55 AM 39.2 °F - 35.6 °F 87% 30.01 in 10.0 mi Calm Calm - N/A   Clear
1:15 AM 39.2 °F - 35.6 °F 87% 30.01 in 10.0 mi Calm Calm - N/A   Clear
1:35 AM 37.4 °F - 35.6 °F 93% 30.01 in 10.0 mi Calm Calm - N/A   Clear
1:55 AM 35.6 °F - 33.8 °F 93% 30.00 in 10.0 mi Calm Calm - N/A   Clear
2:10 AM 37.4 °F 34.9 °F 37.4 °F 100% 30.01 in 10.0 mi SW 3.5 mph - N/A   Clear
2:15 AM 37.4 °F - 37.4 °F 100% 30.01 in 10.0 mi Calm Calm - N/A   Clear
2:28 AM 37.4 °F - 35.6 °F 93% 30.02 in 10.0 mi Calm Calm - N/A   Scattered Clouds
2:35 AM 37.4 °F - 35.6 °F 93% 30.02 in 7.0 mi Calm Calm - N/A   Mostly Cloudy
2:48 AM 37.4 °F - 35.6 °F 93% 30.01 in 10.0 mi Calm Calm - N/A   Overcast
2:55 AM 37.4 °F - 35.6 °F 93% 30.01 in 10.0 mi Calm Calm - N/A   Overcast
3:09 AM 37.4 °F - 35.6 °F 93% 30.01 in 7.0 mi Calm Calm - N/A   Overcast
3:15 AM 35.6 °F - 35.6 °F 100% 30.01 in 7.0 mi Calm Calm - N/A   Overcast
3:29 AM 37.4 °F - 37.4 °F 100% 30.01 in 10.0 mi Calm Calm - N/A   Overcast
3:35 AM 37.4 °F - 35.6 °F 93% 30.01 in 10.0 mi Calm Calm - N/A   Overcast
3:48 AM 39.2 °F - 37.4 °F 93% 30.01 in 10.0 mi Calm Calm - N/A   Overcast
3:55 AM 37.4 °F - 35.6 °F 93% 30.00 in 10.0 mi Calm Calm - N/A   Overcast
4:08 AM 39.2 °F - 37.4 °F 93% 29.99 in 10.0 mi Calm Calm - N/A   Overcast
4:15 AM 37.4 °F - 35.6 °F 93% 30.00 in 10.0 mi Calm Calm - N/A   Overcast
4:29 AM 39.2 °F - 37.4 °F 93% 29.99 in 10.0 mi Calm Calm - N/A   Overcast
4:35 AM 37.4 °F - 35.6 °F 93% 29.99 in 10.0 mi Calm Calm - N/A   Overcast
4:48 AM 39.2 °F - 37.4 °F 93% 29.99 in 10.0 mi Calm Calm - N/A   Overcast
4:55 AM 41.0 °F - 37.4 °F 87% 29.99 in 10.0 mi Calm Calm - N/A   Overcast
5:08 AM 39.2 °F - 37.4 °F 93% 29.99 in 10.0 mi Calm Calm - N/A   Overcast
5:15 AM 39.2 °F - 35.6 °F 87% 29.99 in 10.0 mi Calm Calm - N/A   Overcast
5:28 AM 39.2 °F 37.0 °F 37.4 °F 93% 29.99 in 10.0 mi ENE 3.5 mph - N/A   Overcast
5:35 AM 37.4 °F 34.9 °F 35.6 °F 93% 29.99 in 10.0 mi ENE 3.5 mph - N/A   Overcast
5:48 AM 39.2 °F 35.0 °F 37.4 °F 93% 29.97 in 10.0 mi NE 5.8 mph - N/A   Overcast
5:55 AM 37.4 °F 32.8 °F 35.6 °F 93% 29.97 in 10.0 mi NE 5.8 mph - N/A   Overcast
6:08 AM 39.2 °F 35.9 °F 37.4 °F 93% 29.98 in 10.0 mi North 4.6 mph - N/A   Overcast
6:15 AM 39.2 °F 35.9 °F 35.6 °F 87% 29.98 in 10.0 mi NNE 4.6 mph - N/A   Overcast
6:29 AM 39.2 °F 35.0 °F 37.4 °F 93% 29.98 in 10.0 mi NE 5.8 mph - N/A   Overcast
6:35 AM 37.4 °F 33.8 °F 35.6 °F 93% 29.98 in 10.0 mi NNE 4.6 mph - N/A   Overcast
6:48 AM 39.2 °F 37.0 °F 35.6 °F 87% 29.97 in 10.0 mi NE 3.5 mph - N/A   Overcast
6:55 AM 39.2 °F 37.0 °F 35.6 °F 87% 29.98 in 10.0 mi NE 3.5 mph - N/A   Overcast
7:08 AM 41.0 °F 38.0 °F 37.4 °F 87% 29.98 in 10.0 mi NNE 4.6 mph - N/A   Overcast
7:15 AM 41.0 °F 37.1 °F 35.6 °F 81% 29.98 in 10.0 mi NNE 5.8 mph - N/A   Overcast
7:35 AM 39.2 °F 35.9 °F 35.6 °F 87% 29.99 in 10.0 mi NE 4.6 mph - N/A   Overcast
7:48 AM 41.0 °F 35.2 °F 35.6 °F 81% 29.98 in 10.0 mi NE 9.2 mph - N/A   Overcast
7:55 AM 41.0 °F 35.2 °F 35.6 °F 81% 29.98 in 10.0 mi NE 9.2 mph - N/A   Overcast
8:08 AM 41.0 °F 35.2 °F 35.6 °F 81% 29.98 in 10.0 mi ENE 9.2 mph - N/A   Overcast
8:15 AM 41.0 °F 38.0 °F 35.6 °F 81% 29.98 in 10.0 mi NE 4.6 mph - N/A   Overcast
8:28 AM 42.8 °F 36.2 °F 35.6 °F 76% 29.95 in 10.0 mi East 12.7 mph - N/A   Overcast
8:35 AM 42.8 °F 35.8 °F 33.8 °F 70% 29.94 in 10.0 mi East 13.8 mph - N/A   Overcast
8:48 AM 42.8 °F 39.3 °F 35.6 °F 76% 29.98 in 10.0 mi East 5.8 mph - N/A   Overcast
8:55 AM 42.8 °F 38.0 °F 33.8 °F 70% 29.97 in 10.0 mi East 8.1 mph - N/A   Overcast
9:08 AM 44.6 °F 41.4 °F 35.6 °F 71% 29.98 in 10.0 mi ENE 5.8 mph - N/A   Overcast
9:15 AM 42.8 °F 40.1 °F 33.8 °F 70% 29.99 in 10.0 mi ENE 4.6 mph - N/A   Overcast
9:28 AM 42.8 °F 40.1 °F 35.6 °F 76% 30.01 in 10.0 mi North 4.6 mph - N/A   Overcast
9:35 AM 42.8 °F 38.6 °F 33.8 °F 70% 30.01 in 10.0 mi NNE 6.9 mph - N/A   Overcast
9:48 AM 42.8 °F 37.5 °F 35.6 °F 76% 30.00 in 10.0 mi NE 9.2 mph - N/A Rain Light Rain
9:55 AM 42.8 °F - 35.6 °F 76% 30.01 in 10.0 mi Calm Calm - N/A Rain Light Rain
10:08 AM 42.8 °F 38.0 °F 37.4 °F 81% 30.01 in 10.0 mi NE 8.1 mph - N/A Rain Rain
10:15 AM 41.0 °F 36.4 °F 35.6 °F 81% 30.01 in 7.0 mi NE 6.9 mph - 0.01 in Rain Rain
10:28 AM 41.0 °F 35.2 °F 37.4 °F 87% 29.99 in 7.0 mi NE 9.2 mph - 0.03 in Rain Rain
10:35 AM 41.0 °F 34.7 °F 37.4 °F 87% 29.98 in 7.0 mi ENE 10.4 mph - 0.04 in Rain Light Rain
10:48 AM 39.2 °F 31.6 °F 39.2 °F 100% 29.95 in 4.0 mi East 12.7 mph 18.4 mph 0.09 in Rain Rain
10:55 AM 39.2 °F 31.2 °F 37.4 °F 93% 29.94 in 3.0 mi ENE 13.8 mph 20.7 mph 0.12 in Rain Rain
11:08 AM 41.0 °F 33.9 °F 39.2 °F 93% 29.94 in 7.0 mi ENE 12.7 mph - 0.01 in Rain Light Rain
11:15 AM 41.0 °F 33.9 °F 37.4 °F 87% 29.94 in 7.0 mi ENE 12.7 mph 17.3 mph 0.02 in Rain Rain
11:35 AM 41.0 °F 34.7 °F 37.4 °F 87% 29.96 in 7.0 mi NE 10.4 mph - 0.05 in Rain Rain
11:48 AM 39.2 °F 33.6 °F 37.4 °F 93% 29.97 in 4.0 mi ENE 8.1 mph - 0.10 in Rain Rain
11:55 AM 39.2 °F 34.2 °F 37.4 °F 93% 29.97 in 3.0 mi East 6.9 mph - 0.14 in Rain Heavy Rain
12:08 PM 39.2 °F 33.0 °F 37.4 °F 93% 29.94 in 2.5 mi ENE 9.2 mph - 0.04 in Rain Rain
12:15 PM 39.2 °F 32.5 °F 37.4 °F 93% 29.92 in 4.0 mi ENE 10.4 mph - 0.05 in Rain Light Rain
12:28 PM 39.2 °F 31.6 °F 39.2 °F 100% 29.90 in 10.0 mi East 12.7 mph 21.9 mph 0.05 in Rain Light Rain
12:35 PM 39.2 °F 32.0 °F 37.4 °F 93% 29.89 in 10.0 mi East 11.5 mph 21.9 mph 0.05 in   Overcast
12:48 PM 39.2 °F 32.0 °F 39.2 °F 100% 29.88 in 10.0 mi East 11.5 mph - 0.05 in   Overcast
12:55 PM 41.0 °F 36.4 °F 37.4 °F 87% 29.90 in 10.0 mi ENE 6.9 mph - 0.05 in Rain Light Rain
1:08 PM 41.0 °F 35.2 °F 39.2 °F 93% 29.89 in 10.0 mi East 9.2 mph - N/A Rain Light Rain
1:15 PM 41.0 °F 35.8 °F 37.4 °F 87% 29.88 in 10.0 mi East 8.1 mph - N/A Rain Light Rain
1:35 PM 41.0 °F 35.2 °F 37.4 °F 87% 29.87 in 10.0 mi East 9.2 mph - N/A   Overcast
1:48 PM 42.8 °F 36.2 °F 39.2 °F 87% 29.85 in 10.0 mi East 12.7 mph - N/A   Overcast
1:55 PM 41.0 °F 33.5 °F 37.4 °F 87% 29.84 in 10.0 mi East 13.8 mph 18.4 mph N/A   Overcast
2:15 PM 42.8 °F 36.6 °F 39.2 °F 87% 29.84 in 10.0 mi East 11.5 mph 20.7 mph N/A   Light Drizzle
2:28 PM 42.8 °F 36.6 °F 39.2 °F 87% 29.83 in 10.0 mi East 11.5 mph 21.9 mph N/A   Overcast
2:35 PM 42.8 °F 36.2 °F 39.2 °F 87% 29.83 in 10.0 mi East 12.7 mph 23.0 mph N/A   Overcast
2:48 PM 42.8 °F 38.0 °F 39.2 °F 87% 29.83 in 10.0 mi East 8.1 mph 17.3 mph N/A   Overcast
2:55 PM 42.8 °F 36.6 °F 37.4 °F 81% 29.83 in 10.0 mi East 11.5 mph 19.6 mph N/A   Overcast
3:08 PM 42.8 °F 36.6 °F 39.2 °F 87% 29.83 in 10.0 mi East 11.5 mph - N/A   Overcast
3:15 PM 42.8 °F 36.2 °F 37.4 °F 81% 29.83 in 10.0 mi ENE 12.7 mph 17.3 mph N/A   Overcast
3:28 PM 42.8 °F 36.2 °F 37.4 °F 81% 29.82 in 10.0 mi East 12.7 mph 17.3 mph N/A   Overcast
3:35 PM 42.8 °F 37.5 °F 37.4 °F 81% 29.81 in 10.0 mi ENE 9.2 mph 19.6 mph N/A   Overcast
3:49 PM 42.8 °F 36.2 °F 37.4 °F 81% 29.81 in 10.0 mi ENE 12.7 mph 20.7 mph N/A   Overcast
3:55 PM 41.0 °F 34.7 °F 37.4 °F 87% 29.80 in 10.0 mi East 10.4 mph 20.7 mph N/A   Overcast
4:08 PM 42.8 °F 36.6 °F 37.4 °F 81% 29.80 in 10.0 mi ENE 11.5 mph - N/A   Overcast
4:15 PM 41.0 °F 35.2 °F 37.4 °F 87% 29.80 in 10.0 mi ENE 9.2 mph - N/A   Overcast
4:28 PM 42.8 °F 37.0 °F 37.4 °F 81% 29.80 in 10.0 mi ENE 10.4 mph - N/A   Overcast
4:35 PM 41.0 °F 35.2 °F 37.4 °F 87% 29.79 in 10.0 mi ENE 9.2 mph - N/A   Overcast
4:48 PM 42.8 °F 37.0 °F 37.4 °F 81% 29.79 in 10.0 mi NE 10.4 mph - N/A   Overcast
4:55 PM 41.0 °F 34.3 °F 37.4 °F 87% 29.78 in 10.0 mi ENE 11.5 mph 16.1 mph N/A   Overcast
5:08 PM 42.8 °F 38.6 °F 37.4 °F 81% 29.80 in 10.0 mi ENE 6.9 mph - N/A   Overcast
5:15 PM 41.0 °F 36.4 °F 37.4 °F 87% 29.80 in 10.0 mi ENE 6.9 mph - N/A   Overcast
5:28 PM 42.8 °F 38.0 °F 37.4 °F 81% 29.80 in 10.0 mi NE 8.1 mph - N/A   Overcast
5:35 PM 41.0 °F 35.8 °F 37.4 °F 87% 29.81 in 10.0 mi ENE 8.1 mph - N/A   Overcast
5:48 PM 42.8 °F 38.0 °F 37.4 °F 81% 29.81 in 10.0 mi NE 8.1 mph - N/A   Overcast
5:55 PM 41.0 °F 35.8 °F 37.4 °F 87% 29.80 in 7.0 mi NE 8.1 mph - N/A   Overcast
6:08 PM 42.8 °F 37.0 °F 39.2 °F 87% 29.79 in 10.0 mi NE 10.4 mph - N/A   Overcast
6:15 PM 41.0 °F 36.4 °F 37.4 °F 87% 29.79 in 10.0 mi NE 6.9 mph - N/A   Overcast
6:28 PM 42.8 °F 38.0 °F 39.2 °F 87% 29.79 in 10.0 mi NE 8.1 mph - N/A   Overcast
6:35 PM 41.0 °F 36.4 °F 37.4 °F 87% 29.80 in 10.0 mi NE 6.9 mph - N/A   Overcast
6:48 PM 41.0 °F 35.2 °F 39.2 °F 93% 29.80 in 10.0 mi ENE 9.2 mph - N/A   Overcast
6:55 PM 41.0 °F 34.7 °F 37.4 °F 87% 29.80 in 10.0 mi ENE 10.4 mph - N/A   Overcast
7:08 PM 41.0 °F 35.8 °F 39.2 °F 93% 29.79 in 10.0 mi NE 8.1 mph - N/A   Overcast
7:15 PM 41.0 °F 35.8 °F 37.4 °F 87% 29.80 in 7.0 mi NE 8.1 mph - N/A   Overcast
7:28 PM 39.2 °F 34.2 °F 39.2 °F 100% 29.80 in 4.0 mi NE 6.9 mph - N/A   Overcast
7:35 PM 39.2 °F 33.0 °F 37.4 °F 93% 29.80 in 4.0 mi NE 9.2 mph - N/A   Overcast
7:48 PM 39.2 °F 33.0 °F 39.2 °F 100% 29.79 in 4.0 mi NE 9.2 mph - N/A   Overcast
7:55 PM 39.2 °F 34.2 °F 37.4 °F 93% 29.80 in 4.0 mi NE 6.9 mph - N/A   Overcast
8:08 PM 39.2 °F 33.0 °F 39.2 °F 100% 29.80 in 5.0 mi NE 9.2 mph - N/A   Overcast
8:15 PM 39.2 °F 33.6 °F 37.4 °F 93% 29.81 in 5.0 mi NE 8.1 mph - N/A   Overcast
8:28 PM 39.2 °F 33.6 °F 39.2 °F 100% 29.80 in 5.0 mi NE 8.1 mph - N/A   Overcast
8:35 PM 39.2 °F 33.6 °F 37.4 °F 93% 29.80 in 7.0 mi NE 8.1 mph - N/A   Overcast
8:48 PM 39.2 °F 33.0 °F 39.2 °F 100% 29.79 in 7.0 mi NE 9.2 mph - N/A   Overcast
8:55 PM 39.2 °F 33.0 °F 37.4 °F 93% 29.78 in 7.0 mi NE 9.2 mph - N/A   Overcast
9:08 PM 39.2 °F 32.5 °F 39.2 °F 100% 29.78 in 5.0 mi NNE 10.4 mph 16.1 mph N/A   Overcast
9:15 PM 39.2 °F 33.0 °F 37.4 °F 93% 29.79 in 5.0 mi NNE 9.2 mph - N/A   Overcast
9:28 PM 39.2 °F 33.6 °F 39.2 °F 100% 29.79 in 4.0 mi NE 8.1 mph - N/A   Overcast
9:35 PM 39.2 °F 33.0 °F 37.4 °F 93% 29.79 in 4.0 mi NE 9.2 mph - N/A   Overcast
9:49 PM 39.2 °F 33.0 °F 39.2 °F 100% 29.78 in 4.0 mi NE 9.2 mph - N/A   Overcast
9:55 PM 39.2 °F 33.0 °F 37.4 °F 93% 29.78 in 4.0 mi NE 9.2 mph - N/A   Overcast
10:08 PM 39.2 °F 33.6 °F 39.2 °F 100% 29.78 in 4.0 mi ENE 8.1 mph - N/A   Overcast
10:15 PM 39.2 °F 33.0 °F 37.4 °F 93% 29.78 in 3.0 mi ENE 9.2 mph - N/A   Overcast
10:28 PM 39.2 °F 32.5 °F 39.2 °F 100% 29.76 in 2.5 mi NE 10.4 mph - N/A   Overcast
10:35 PM 39.2 °F 32.5 °F 37.4 °F 93% 29.77 in 2.0 mi NE 10.4 mph - N/A   Overcast
10:48 PM 39.2 °F 35.0 °F 39.2 °F 100% 29.78 in 1.5 mi East 5.8 mph - N/A   Overcast
10:55 PM 39.2 °F 35.0 °F 37.4 °F 93% 29.78 in 1.2 mi ENE 5.8 mph - N/A   Overcast
11:08 PM 39.2 °F 35.0 °F 39.2 °F 100% 29.77 in 1.0 mi NE 5.8 mph - N/A   Overcast
11:15 PM 37.4 °F 32.1 °F 37.4 °F 100% 29.76 in 1.0 mi NE 6.9 mph - N/A   Overcast
11:28 PM 39.2 °F 33.0 °F 39.2 °F 100% 29.74 in 0.8 mi NE 9.2 mph - N/A   Overcast
11:35 PM 37.4 °F 31.4 °F 37.4 °F 100% 29.74 in 0.8 mi NE 8.1 mph - N/A   Overcast
11:48 PM 39.2 °F 32.5 °F 39.2 °F 100% 29.74 in 0.8 mi NE 10.4 mph - N/A   Overcast
11:55 PM 37.4 °F 30.3 °F 37.4 °F 100% 29.73 in 0.8 mi ENE 10.4 mph - N/A   Overcast